STARLINK-11404, 62019

Orbit data source: Space-Track

STARLINK-11404, 62019 is a payload satellite owned by SpaceX/Seattle (US) in LEO that was launched on Mon, 18 Nov 2024 UTC via an FALCON 9 launch vehicle from the Air Force Western Test Range (AFWTR). Payload-class satellites include a variety of spacecraft equipped with specific instruments for various scientific and technological missions. These include communications satellites like Starlink; space stations such as the ISS; scientific satellites like the Hubble; Earth observation satellites from companies like Planet Labs, Umbra, and HawkEye 360; GPS; miniature CubeSats for education and research; and military/defense satellites.

Loading next visibility...
Identifier
62019, 2024-213M
Orbit
LEO
Country
Flag of USUS
Related business
Manufacturer
SpaceX/Seattle
Mission
Operational Commercial Communications
Bus & Motor
STARLINK V2MD, Unknown motor
Mass
960 kg wet, ~910 kg dry
Launch date (UTC)
2024-11-18 (1 year ago)
Launch vehicle
FALCON 9
Launch site
Air Force Western Test Range (AFWTR)
Object type
Payload
Rocket body
Debris
Shape & HBR
Box + 2 Pan, 18.1 m
Radar Cross Section
36.964 m², Large (>1 m²)

Expand to show TLE details & history
Last TLE update: 1 day ago

TLE from 1 day ago
0 STARLINK-11404
1 62019U 24213M   25345.65455937  .00220737  00000-0  17671-2 0  9998
2 62019  53.1555 115.5829 0001319 323.6827  36.4101 15.69868796 61085
Epoch: 2025-12-11T15:42Z
TLE epoch observation values (Epoch: 2025-12-11T15:42:33.929Z)
Latitude
-0.00004°
Longitude
159.33407°
Altitude
359.472 km
Speed
7.695 km/s
True Right ascension
07h 42m 19s
True Declination
0° 00' 00"
Sunlit
Object was in full shadow at epoch
Visualization orbit readout
Latitude
Unknown
Longitude
Unknown
Altitude
Unknown
Speed
Unknown
Apparent Right ascension
Unknown
Apparent Declination
Unknown
Sunlit
N/A
Visualization observer readout
Local Sidereal Time
22:21:23
Azimuth
Unknown
Elevation
Unknown
Doppler factor
Unknown
Orbital elements
Apogee altitude
360.423 km
Perigee altitude
358.645 km
Semi-major axis
6,737.671 km
Eccentricity
0.00013
Inclination
53.1555°
RAAN
115.5829°
Arg. of periapsis
323.6827°
True anomaly
36.41907°
Mean anomaly
36.4101°
Eccentric anomaly
36.41459°
Mean motion
3.92445 °/min
Orbital period
91.73 mins
BSTAR
0.0017671
Loading maneuver chart data...
Computing Atmospheric mass density...
Loading historical data...
Loading historical data...
Loading historical data...
Loading historical data...
Loading historical data...
Loading historical data...
Loading historical data...

Documentation

Showing up to 5 results
|